Location: Unspecified
(0.0000°N, 0.0000°E)
Time: 04:00:55
(UTC+00:00)

Hubble Space Telescope - Pass Details

Date: 07 December 2017
Orbit: 537 x 541 km, 28.5° (Epoch: 24 February)

Event Time Altitude Azimuth Distance (km) Brightness Sun altitude
Exits shadow 04:52:22 10° 244° (WSW) 1,778 3.0 -13.6°
Maximum altitude 04:54:45 15° 208° (SSW) 1,490 3.0 -13.1°
Drops below altitude 10° 04:57:09 10° 172° (S) 1,783 3.9 -12.5°
Sets 05:00:14 0° 148° (SSE) 2,674 5.3 -11.8°
